sat.trackr.live / text

‹ back to catalog

STARLINK-34720

NORAD 66449 · 2025-259AD

PAYLOAD ACTIVE UNKNOWN

§ Identity

Operator
Country
US
Launch date
2025-11-11
Launch site
AFETR
Launch vehicle
Mass (kg)
RCS (m²)

Purposes: comms

External: N2YO · Heavens-Above · Gunter

§ Orbital elements

Epoch: 2026-05-24T15:22:09.206976Z

Period
94.27 min
Inclination
42.9984°
Eccentricity
0.0002083
Mean motion
15.27577968 rev/d
Perigee alt
481.6 km
Apogee alt
484.5 km
Semi-major
6,861.2 km
B*
4.9983e-4
RAAN
205.6998°
Arg perigee
268.0528°
Mean anomaly
92.0086°
Rev number
3,099

§ Raw data

STARLINK-347201 66449U 25259AD  26144.64038434  .00013517  00000+0  49983-3 0  99932 66449  42.9984 205.6998 0002083 268.0528  92.0086 15.27577968 30993

JSON: /api/v1/satellites/66449 · /tle

For live sub-satellite position, see the globe view (requires WebGL).

§ Visibility from observer

Set your observer location to see the next 7 days of passes ≥ 10°. The values pass through the URL so the page stays shareable.

No JS? Fill the form by hand. The geolocation button needs JavaScript.